Wind_Gust
15 15 15 16 16 16 16 16 16 16 16 17 17 17 17 16 17 17 18 19 19 20 20 20 20 22 22 23 24 25 24 28 29 27 25 28 10 14 13 15 13 11 10 16 17 18 21 21 22 20 22 21 22 24 22 22 22 20 25 23 24 24 23 20 25 21 19 16 17 14 15 18 21 21 22 21 18 16 23 25 27 25 25 25 27 29 28 26
16 15 16 16 16 16 16 16 17 18 18 18 17 17 18 17 17 18 18 19 20 20 19 21 21 22 23 23 25 25 27 28 28 29 34 16 16 12 14 13 14 13 13 21 22 22 21 22 22 21 23 25 17 25 19 26 21 24 22 25 25 23 23 22 16 18 16 18 11 17 10 13 19 24 23 26 22 20 22 24 25 25 24 22 24 26 26 24
16 16 16 16 16 17 17 17 18 18 18 18 17 17 17 17 17 17 17 18 19 20 20 21 22 23 23 23 24 23 27 29 28 31 32 21 21 17 16 15 16 14 23 22 22 23 24 20 21 22 23 25 22 25 21 25 25 24 24 25 27 24 23 16 14 14 19 12 13 16 16 14 18 26 26 26 23 20 23 28 27 25 24 25 25 24 24 22
16 16 16 16 17 18 18 18 18 17 17 17 17 17 17 17 17 17 17 18 18 19 19 21 22 23 23 24 22 29 25 27 30 23 23 13 15 11 11 12 16 19 24 25 21 24 22 23 21 22 23 26 21 24 24 21 25 21 28 27 25 22 25 16 15 13 11 9 14 11 14 15 19 13 24 20 24 22 22 26 25 28 26 26 25 25 23 23
16 16 17 18 18 18 19 18 18 18 17 18 17 17 16 17 17 17 17 18 18 19 20 20 22 23 23 24 23 26 23 24 22 24 18 11 11 12 10 13 15 25 26 23 24 24 23 24 24 22 26 27 25 22 24 20 23 20 25 25 29 23 18 17 16 19 12 9 11 9 21 21 20 15 22 20 21 23 22 20 25 33 31 27 28 26 25 23
17 17 18 19 19 19 19 18 18 17 18 17 17 17 17 16 16 16 17 17 18 18 20 21 21 22 24 23 30 24 21 18 19 21 13 14 13 10 15 15 16 24 24 26 26 22 24 24 25 27 29 27 24 28 22 25 21 27 21 24 26 26 21 17 15 14 13 19 19 17 16 14 18 22 22 23 17 17 24 21 34 28 29 26 26 27 24 22
17 18 18 19 20 19 18 18 17 18 17 18 18 17 17 16 16 17 17 18 18 19 19 20 20 23 22 23 33 23 26 41 13 21 13 16 13 13 15 17 17 23 24 27 27 29 26 26 27 25 26 27 26 31 23 23 23 25 28 20 23 23 22 19 16 16 19 20 17 21 17 19 17 21 24 25 15 24 34 34 31 30 25 26 28 24 24 23
18 19 20 20 19 19 19 18 18 18 18 17 17 17 17 16 16 16 17 17 18 18 18 19 19 21 20 25 23 24 27 30 30 24 14 14 18 17 16 20 22 22 25 28 27 28 24 29 29 27 30 28 22 29 22 24 24 28 32 22 21 21 22 19 15 15 18 20 20 11 15 19 19 22 26 22 17 19 35 32 29 25 26 23 24 24 22 21
18 19 19 21 19 19 18 18 18 17 17 17 17 16 17 16 16 15 17 17 18 18 18 19 19 19 18 23 22 24 30 28 28 23 25 21 18 20 19 21 22 23 25 27 27 27 26 28 30 28 26 27 24 24 24 24 30 28 24 23 23 21 19 21 17 18 19 20 19 18 20 18 22 16 26 23 18 21 29 31 29 23 22 25 22 21 20 20
19 19 20 20 20 18 18 18 18 17 17 17 17 16 15 16 15 15 16 17 17 18 18 18 19 18 23 22 22 25 23 28 19 20 14 9 13 19 18 19 22 24 24 26 27 29 30 28 28 24 27 26 22 26 20 26 25 23 26 25 25 22 19 18 21 22 20 21 20 22 21 21 17 21 24 23 19 20 27 26 29 26 23 23 22 21 18 20
19 19 19 20 19 18 18 17 17 17 17 17 17 16 16 16 16 16 16 17 17 18 18 18 17 19 22 19 26 27 16 16 13 13 10 11 14 17 20 20 20 24 24 23 28 30 27 27 23 24 27 31 21 24 25 25 26 28 21 22 26 25 21 19 21 23 25 28 21 23 22 21 19 25 23 21 21 20 23 26 27 27 24 25 22 22 20 19
19 18 19 19 18 18 18 18 17 17 17 17 16 16 17 16 17 17 18 18 18 18 17 16 16 24 22 24 28 33 14 16 13 14 14 13 20 20 17 15 17 22 23 24 26 27 28 27 25 27 28 20 32 19 26 24 24 25 19 22 22 25 33 22 24 25 25 28 25 21 23 25 26 28 27 25 23 21 23 26 29 29 27 26 26 22 21 20
18 18 19 19 19 18 19 19 19 19 18 18 18 18 18 18 17 18 18 20 18 17 16 16 16 22 23 27 34 34 41 38 31 21 16 16 16 14 17 17 18 21 22 23 23 25 25 28 26 28 29 24 21 32 14 24 24 23 22 23 22 27 30 25 23 24 24 25 28 26 31 26 27 27 31 25 25 23 23 26 30 27 27 27 24 23 23 20
18 18 18 18 19 19 19 19 19 19 19 18 18 19 19 18 17 17 19 19 18 18 16 15 20 22 23 36 27 28 30 31 28 27 26 22 20 20 18 17 17 21 21 23 22 21 25 27 26 27 24 28 27 17 23 22 23 30 23 23 28 28 32 28 32 27 29 26 27 27 29 27 28 31 32 26 24 24 24 23 25 25 27 25 24 21 21 19
19 18 18 18 18 18 19 19 19 19 19 20 20 20 19 19 19 20 19 19 18 15 16 15 21 22 23 32 29 38 33 35 33 29 24 25 24 22 21 19 19 19 21 21 23 22 25 25 27 29 31 23 30 26 25 24 26 27 30 31 28 30 24 29 31 32 35 30 27 27 31 26 31 32 32 25 25 24 24 22 22 25 24 23 23 22 23 20
18 18 19 18 18 19 18 18 19 19 20 20 20 19 22 25 22 20 20 19 18 17 19 21 23 24 24 32 25 16 32 36 35 31 28 24 24 24 20 21 17 18 19 20 22 22 23 25 32 27 25 24 29 26 23 28 27 29 30 22 29 28 27 30 33 31 32 32 27 30 30 31 33 33 31 26 26 25 24 23 21 23 26 25 24 23 22 23
18 18 18 18 18 19 19 19 19 20 20 20 20 23 25 24 23 19 17 16 19 21 22 23 19 26 20 19 20 29 33 31 27 31 30 29 26 24 22 21 25 21 21 19 22 20 21 26 23 26 28 29 28 27 27 29 27 30 30 29 24 28 31 32 32 31 33 31 30 32 36 31 24 32 31 27 25 26 24 23 24 23 23 25 24 25 23 23
18 18 18 18 19 19 20 19 19 20 21 19 18 24 34 25 22 19 15 16 22 21 21 27 26 23 40 41 33 28 28 26 30 31 28 30 29 25 25 28 20 22 23 24 23 26 26 30 27 29 27 30 31 33 33 30 29 27 28 28 28 29 30 28 36 33 33 34 28 30 35 36 29 30 30 27 24 25 23 25 25 22 22 24 26 24 24 23
17 18 18 19 19 20 20 20 20 20 20 19 23 30 30 27 28 19 20 23 26 19 18 29 30 30 16 19 38 31 25 27 27 28 29 30 30 29 26 24 22 26 29 28 28 26 30 27 27 31 35 35 35 34 33 25 25 25 26 27 27 28 31 34 31 30 35 35 32 30 38 37 34 31 29 26 25 24 22 23 24 21 22 24 24 25 22 20
17 18 18 19 19 19 19 19 20 20 19 20 25 26 24 18 20 22 26 25 32 28 21 23 39 32 34 35 22 34 27 14 31 29 26 28 32 29 29 27 26 29 29 31 29 33 26 32 36 36 32 31 30 30 30 32 26 23 24 26 30 28 26 28 29 29 35 35 32 29 33 36 30 25 27 25 23 22 23 24 21 22 21 26 29 28 27 24
17 18 19 19 19 19 19 19 20 18 18 24 24 25 22 17 22 18 24 29 28 30 34 32 31 30 34 29 20 21 27 24 22 29 28 27 26 29 34 31 31 33 33 27 28 27 29 33 35 31 30 28 29 29 29 31 32 28 24 26 30 28 27 27 27 34 35 32 30 27 31 35 30 26 27 22 23 24 24 24 19 21 21 24 30 31 30 22
17 18 18 19 19 19 19 19 19 20 17 23 23 24 24 26 19 14 21 28 29 37 35 33 30 33 33 32 29 24 16 23 29 25 28 28 31 37 31 34 33 34 29 31 29 31 36 38 31 29 29 28 27 29 29 31 31 31 30 26 29 29 26 23 28 27 33 31 28 29 29 33 33 26 27 23 24 24 24 21 21 21 21 27 35 33 29 22
17 18 18 19 19 20 20 20 18 16 27 24 24 24 28 22 16 17 21 30 37 33 33 35 33 33 36 34 29 20 22 26 31 30 37 30 31 37 31 37 33 31 34 33 35 31 34 34 29 28 27 29 28 29 29 31 31 29 28 26 30 25 30 32 28 25 28 32 26 32 29 33 31 24 22 22 28 26 24 22 23 22 19 27 33 32 34 27
16 17 18 19 20 19 21 21 22 24 28 28 24 26 26 25 19 18 22 25 28 25 34 37 35 34 36 35 30 27 25 27 27 31 29 39 35 32 36 34 32 35 36 35 34 33 31 22 28 28 28 30 31 29 30 32 31 29 28 27 28 26 32 29 29 27 23 28 29 28 31 32 34 28 25 22 25 28 26 20 22 22 18 18 32 33 32 29
15 16 17 17 18 20 20 23 24 26 25 23 27 24 20 16 17 15 22 29 35 46 32 31 31 34 35 29 26 36 28 27 26 23 34 32 34 37 34 36 37 36 32 33 34 36 30 25 27 32 30 30 32 32 36 32 30 29 28 27 23 23 27 31 30 28 27 29 35 31 42 37 33 31 31 28 26 25 23 21 21 19 20 23 33 30 28 30
16 16 16 16 17 19 23 22 13 24 16 20 20 18 14 15 14 19 17 22 24 27 29 35 33 38 37 33 28 31 24 39 27 29 26 33 28 35 35 36 40 35 34 33 37 39 29 25 26 33 33 32 33 33 31 32 31 28 33 30 30 26 27 27 33 29 29 33 33 32 37 34 31 35 32 31 28 28 25 25 24 22 23 23 22 23 22 25
15 15 15 14 16 16 22 16 26 26 21 17 13 10 14 13 13 11 20 22 23 33 29 30 34 34 40 28 33 27 36 35 28 28 28 34 35 31 34 31 34 30 35 36 40 43 31 32 29 29 33 35 35 37 34 35 33 34 22 29 29 28 26 28 33 28 24 21 26 30 36 32 35 34 36 31 30 31 28 26 24 25 22 25 21 22 22 24
14 14 14 14 15 12 21 27 25 24 22 15 16 14 12 13 13 14 18 13 20 27 28 35 21 29 28 29 30 37 23 22 39 38 29 28 31 33 39 31 33 31 33 36 40 26 29 34 34 32 32 37 38 32 27 32 40 28 22 26 32 29 24 29 33 29 25 25 31 36 30 37 29 27 27 30 32 32 30 26 24 22 22 27 29 24 21 22
14 14 14 14 15 19 25 25 22 28 23 26 24 16 19 9 12 18 17 16 22 26 26 25 24 21 16 27 34 30 36 29 31 30 30 25 34 28 40 32 32 29 32 35 36 32 36 33 32 31 33 36 29 31 31 31 36 28 25 26 27 29 26 28 31 30 28 28 29 34 34 36 30 26 31 30 32 33 32 27 23 22 22 25 27 24 21 21
12 12 13 13 16 23 25 26 29 28 22 20 21 19 13 12 15 14 17 17 23 21 25 19 25 26 23 32 32 32 36 30 27 38 37 37 32 31 30 25 31 33 35 34 36 31 28 29 34 36 38 32 28 28 31 30 29 25 32 31 29 28 25 24 30 33 30 34 33 30 35 30 33 29 31 34 38 32 29 26 23 23 23 24 22 21 23 22
12 12 14 11 21 19 21 23 22 31 27 14 14 13 15 15 19 20 14 17 21 20 15 22 26 26 30 29 32 32 31 30 31 38 40 34 34 33 27 34 32 32 33 34 37 34 31 31 40 42 29 34 29 32 30 28 31 32 37 37 29 30 26 25 28 29 36 34 31 33 33 34 35 26 28 30 28 34 32 28 25 23 23 25 21 21 20 21
13 12 12 19 23 23 24 21 25 29 17 16 12 17 16 16 23 22 20 20 22 19 22 24 24 31 28 26 25 37 41 32 31 44 38 39 33 41 39 34 39 40 39 36 37 33 36 34 30 33 33 32 34 30 33 32 33 38 32 35 34 34 34 35 33 36 35 32 27 34 33 35 36 16 27 30 30 34 33 34 28 24 23 22 22 20 20 20
10 10 13 22 19 21 26 27 27 23 12 12 17 19 19 19 23 26 33 20 14 15 18 22 23 26 26 26 30 32 32 32 30 33 32 37 34 34 32 37 33 37 38 36 34 37 34 29 33 34 32 37 33 39 38 37 36 37 38 36 38 39 36 29 32 27 28 27 27 30 31 35 23 26 28 30 32 33 34 30 29 24 24 22 22 21 20 20
12 13 25 22 24 25 23 21 22 19 17 15 19 19 23 20 25 14 24 25 15 17 14 19 16 21 27 36 26 31 38 32 30 38 34 34 38 36 39 36 35 37 33 35 43 39 34 40 39 36 40 33 41 36 32 28 33 38 32 37 34 36 40 31 34 33 30 26 28 26 35 37 27 21 22 27 28 29 29 28 26 27 25 23 23 21 20 20
11 19 26 25 24 26 25 23 20 17 16 19 23 26 24 31 25 20 21 22 20 17 17 15 18 20 23 28 24 30 31 38 31 31 35 36 39 40 39 40 38 36 32 31 35 38 35 35 29 35 25 34 36 33 33 31 33 35 35 32 36 39 27 33 23 25 28 27 30 32 27 20 26 26 23 26 27 28 29 31 30 26 24 22 22 20 19 19
15 27 24 28 26 25 26 26 20 17 19 22 26 27 32 30 20 18 18 17 19 19 12 18 18 21 25 26 25 30 34 33 34 36 38 36 35 40 34 37 47 39 37 38 29 35 37 40 28 36 33 32 35 33 38 31 39 38 38 44 37 27 29 23 19 22 9 24 34 28 24 27 29 23 22 24 27 27 26 28 26 24 23 21 19 20 19 19
24 23 25 22 26 24 30 27 23 21 22 25 27 29 31 30 24 21 20 15 15 15 17 20 24 24 25 31 29 31 37 33 34 37 35 34 41 38 41 35 34 41 36 31 31 31 29 30 29 37 38 32 32 33 32 32 30 33 43 36 29 29 28 30 28 24 24 32 29 34 30 28 27 25 25 25 25 25 25 25 27 25 24 22 19 18 17 17
22 22 25 26 25 20 23 31 23 23 24 25 28 21 24 31 20 21 19 26 19 19 20 17 15 18 21 26 29 32 34 37 31 38 30 36 40 34 34 44 38 39 36 30 27 31 31 32 33 34 34 32 31 33 34 30 32 33 33 25 42 36 37 34 27 30 30 33 31 35 34 30 31 25 30 28 29 28 27 27 27 26 24 22 19 19 17 16
20 22 27 19 23 19 20 26 23 24 24 27 29 29 32 33 24 24 23 23 16 18 20 12 15 21 20 20 26 28 34 42 32 34 33 37 38 38 40 33 37 38 36 32 33 25 28 26 29 31 37 34 34 38 39 36 34 32 26 36 32 32 33 32 33 22 32 28 27 29 35 32 34 34 36 33 32 30 30 27 25 25 24 22 22 19 18 17
19 18 21 11 15 18 19 21 24 25 28 29 27 33 20 25 27 25 25 20 21 20 16 14 13 17 23 16 18 31 32 34 32 32 30 29 36 28 37 33 33 43 36 33 28 21 27 21 24 34 34 33 42 44 40 39 38 40 38 37 40 39 24 31 28 33 32 33 32 28 30 32 24 33 39 39 36 32 32 29 25 24 24 21 20 19 17 18
16 19 16 13 15 19 22 23 27 30 30 28 27 28 26 29 17 19 20 18 23 16 20 16 17 18 17 20 25 23 29 33 33 32 29 25 34 31 30 32 30 36 41 36 31 26 21 23 21 29 38 38 35 37 34 38 36 36 37 35 35 35 34 34 32 32 35 35 32 31 30 21 19 21 25 33 33 34 29 28 26 24 24 22 21 19 17 17
16 19 16 14 19 23 28 26 31 26 30 29 29 31 32 19 24 20 18 20 20 25 15 19 15 18 20 17 20 21 20 33 31 26 28 24 30 26 25 29 29 31 42 38 35 26 22 23 22 25 35 35 32 33 35 34 35 35 35 34 34 34 33 35 33 31 32 33 28 27 23 16 21 19 20 30 30 28 28 28 28 25 24 23 22 18 17 16
20 20 10 14 19 26 27 24 24 28 30 30 24 29 30 30 21 23 25 19 23 20 23 19 14 16 16 20 21 20 21 30 27 27 22 24 26 29 24 30 26 31 35 39 33 29 14 25 27 26 28 30 31 29 34 34 33 35 37 33 33 36 33 32 30 26 29 25 33 29 25 17 16 17 27 29 29 28 27 25 27 25 23 23 20 19 18 17
18 19 13 13 22 25 26 28 27 25 27 25 28 29 24 29 23 23 27 21 24 16 18 16 15 16 18 15 20 21 22 20 25 22 30 26 30 20 26 29 27 34 35 29 32 30 31 26 28 24 29 35 33 32 42 35 37 37 36 35 32 32 31 29 24 15 24 26 26 28 21 13 16 14 25 29 29 28 27 24 27 27 23 21 21 19 18 18
18 15 11 13 21 26 31 28 22 19 24 25 27 26 26 25 22 25 24 22 17 19 16 18 18 16 20 16 23 22 23 22 22 22 23 26 23 21 22 23 24 25 27 23 17 29 25 22 29 28 29 34 39 40 44 41 42 36 30 34 34 34 32 32 29 26 24 23 27 25 21 21 20 22 26 26 27 26 24 24 23 25 24 24 20 21 20 18
15 16 15 16 24 26 30 25 23 21 23 23 18 24 22 27 25 24 23 24 17 18 21 18 15 17 21 19 23 23 24 23 26 18 28 18 24 24 21 22 26 23 20 15 23 27 28 23 27 22 25 26 26 28 22 28 33 39 30 32 35 32 31 30 24 25 27 17 24 19 31 30 23 26 27 26 27 28 25 24 26 26 23 23 20 20 19 18
13 15 15 19 23 24 24 23 24 24 23 20 24 22 22 22 22 28 19 23 15 17 19 17 17 19 19 21 23 24 25 25 24 22 21 23 21 21 21 24 27 21 15 16 16 20 22 25 19 15 14 14 14 16 17 28 33 34 31 30 30 33 28 27 25 28 19 17 19 28 31 36 29 28 27 28 26 27 25 24 24 25 24 23 21 20 16 18
18 14 12 13 18 20 22 22 26 23 23 21 24 24 21 23 22 19 16 9 13 11 14 13 19 21 22 19 18 25 24 26 27 25 29 26 20 23 30 26 29 19 13 23 24 26 22 22 18 15 14 14 10 13 17 23 26 30 29 25 28 30 23 23 20 22 16 19 17 19 28 32 33 29 27 26 26 27 26 24 24 24 24 22 22 21 20 19
18 17 15 16 15 15 21 18 23 24 24 23 22 20 20 18 20 22 15 11 16 16 19 17 18 19 20 21 20 22 28 30 24 26 31 27 20 28 21 20 23 20 23 23 27 26 26 22 18 20 19 12 13 14 12 20 20 25 29 27 23 23 18 18 18 20 23 20 28 24 18 22 24 27 25 23 21 24 25 23 24 23 23 23 22 21 20 19
10 13 12 16 17 21 24 24 24 25 24 21 21 18 23 17 18 15 15 16 9 15 17 25 23 20 19 19 21 24 23 21 20 20 22 26 21 23 20 18 18 19 25 26 26 19 28 16 14 18 19 17 14 12 14 17 16 15 16 24 18 18 15 20 22 23 28 24 21 31 28 24 18 23 23 19 23 23 24 23 23 22 22 22 22 21 20 18
11 10 11 17 21 15 21 23 22 21 20 20 22 18 18 17 12 18 17 16 18 17 13 16 18 18 21 21 18 20 22 21 19 20 18 23 20 15 20 16 17 23 28 30 25 16 21 13 16 18 18 16 16 14 16 15 19 18 19 19 16 20 23 20 19 12 20 22 24 25 27 23 19 23 25 21 22 23 25 24 23 22 20 21 21 21 19 18
14 14 13 15 15 12 20 19 19 21 21 19 20 17 18 13 14 22 16 19 25 27 15 16 18 14 12 14 14 12 22 26 20 21 23 22 22 18 17 16 18 22 29 28 20 21 25 21 20 19 21 16 18 20 20 22 23 21 19 18 15 20 21 20 21 18 22 27 23 14 17 23 25 23 26 22 23 22 23 22 24 22 20 20 20 20 19 17
Wind_Speed
11 12 12 12 12 12 13 13 12 13 13 13 13 13 14 13 13 14 14 15 15 16 16 16 16 17 18 19 19 20 20 15 17 15 14 16 6 10 11 12 11 9 6 7 9 10 10 10 12 11 10 8 8 10 9 11 9 7 8 8 9 9 12 9 13 5 5 3 6 4 7 10 9 10 11 6 5 9 15 15 15 16 14 15 15 17 18 16
12 12 12 12 12 13 13 13 14 15 15 15 14 13 14 14 13 14 14 15 15 16 16 17 17 17 19 19 20 20 18 16 17 18 20 8 10 8 12 11 9 9 6 9 12 11 11 11 12 11 10 9 8 10 9 8 9 9 7 9 11 10 10 13 4 6 4 2 5 5 3 5 9 10 7 7 8 11 12 14 16 16 16 14 15 15 16 14
12 13 12 12 13 13 14 14 14 14 14 14 13 13 13 13 14 13 13 14 14 15 16 17 17 18 19 19 19 19 17 17 16 18 19 19 17 14 13 12 11 10 9 11 12 13 12 11 11 11 10 10 9 11 11 8 11 10 9 10 11 14 13 10 4 3 3 6 5 8 8 4 4 13 11 12 13 10 11 12 15 15 15 14 13 14 14 13
12 12 12 13 13 14 14 15 14 14 14 14 14 13 13 13 13 14 13 14 13 14 15 17 18 18 19 19 18 17 14 15 14 10 6 10 12 10 9 10 11 10 10 13 13 13 12 13 13 12 10 11 9 13 11 8 8 8 11 11 11 12 13 6 2 5 5 1 7 6 4 6 6 1 2 11 12 10 8 16 16 18 17 15 14 13 13 13
13 13 13 14 14 14 15 14 14 13 13 14 13 14 13 13 13 13 14 14 14 15 16 16 18 19 19 19 18 13 13 8 2 10 7 9 9 10 9 9 9 11 13 13 14 15 14 14 14 12 11 9 11 10 10 10 9 7 12 14 17 13 10 9 4 8 3 2 4 2 5 11 9 4 7 10 11 7 7 11 15 19 18 17 15 13 13 13
13 13 14 15 15 15 15 14 14 13 13 13 14 14 13 12 12 12 13 14 14 14 16 17 17 18 19 18 16 11 6 3 5 9 11 11 10 9 10 9 8 11 12 14 14 13 14 14 14 12 10 11 11 12 11 13 11 10 10 13 16 15 12 9 2 6 7 5 8 2 5 5 2 5 10 9 5 8 15 9 22 17 18 16 13 14 11 13
14 15 15 15 16 15 15 14 14 14 13 14 14 13 13 13 11 13 14 14 15 15 15 16 16 18 18 19 15 11 10 12 5 9 8 12 11 11 8 9 9 9 12 14 15 14 14 15 14 13 11 12 14 13 13 12 13 11 10 11 13 15 9 12 4 4 2 5 9 11 10 5 6 11 9 12 7 16 19 21 20 20 16 14 14 11 12 12
14 15 16 16 16 15 15 14 14 14 14 13 13 13 13 13 12 12 13 13 14 14 14 15 15 17 17 13 10 9 12 13 19 12 11 10 11 9 10 8 10 9 12 16 15 17 14 16 15 12 13 11 9 13 12 14 13 13 13 13 13 10 11 12 6 2 5 11 11 6 3 9 9 11 10 14 9 13 23 19 17 16 15 14 10 9 10 9
15 15 15 16 15 15 14 14 14 14 14 13 13 13 13 12 12 12 13 13 14 14 14 15 15 15 15 11 9 10 13 14 16 12 15 13 11 12 10 8 12 10 11 14 16 15 15 13 16 14 11 14 13 14 14 12 11 13 13 13 13 12 7 11 9 7 6 7 10 6 7 11 11 9 7 14 11 14 19 20 16 15 15 15 11 8 8 7
15 15 16 16 15 15 14 14 14 13 13 14 13 12 12 13 12 12 12 13 13 14 15 15 15 15 14 9 10 11 11 19 12 13 9 4 8 12 11 10 12 11 12 14 15 17 16 12 15 14 16 14 12 13 12 15 11 9 15 15 15 14 10 9 13 9 9 9 9 12 11 11 11 9 8 15 12 13 18 17 19 16 14 13 13 5 4 8
15 15 15 15 15 15 14 13 13 13 13 13 13 13 13 13 13 12 12 13 13 13 14 14 13 13 11 9 11 11 4 8 5 5 5 6 8 10 10 10 11 11 13 13 16 16 16 16 13 9 11 10 11 14 14 11 11 16 13 14 17 15 13 10 11 11 9 10 13 12 13 13 9 8 9 12 12 10 15 15 16 14 15 12 12 10 8 6
15 15 15 15 15 15 14 14 13 13 13 13 13 13 13 13 14 14 15 14 14 14 13 13 13 8 11 12 12 13 7 8 3 4 6 7 10 11 11 9 10 12 12 13 15 15 16 16 15 13 9 9 13 11 13 14 14 15 10 8 10 14 15 14 12 12 11 10 13 12 13 14 13 13 16 11 13 12 14 15 16 16 14 15 11 8 6 6
15 14 15 15 15 15 15 15 15 15 15 15 14 15 14 14 14 13 13 15 14 13 12 12 11 8 10 12 15 19 25 21 18 13 5 3 6 5 6 8 8 9 11 13 12 14 15 15 16 17 15 11 10 10 2 7 13 14 12 9 12 11 14 16 12 11 13 12 15 10 11 12 15 14 18 12 14 13 14 16 18 15 15 15 14 12 11 9
15 14 15 15 15 15 15 15 15 15 15 15 15 16 16 14 13 14 15 15 15 14 13 11 9 9 9 12 8 13 19 17 18 15 13 9 11 10 9 9 8 10 11 13 13 11 14 14 16 16 12 14 11 7 13 8 9 12 11 10 9 10 11 15 13 12 15 11 13 14 11 10 13 14 18 16 16 14 14 15 16 15 16 14 13 11 11 8
15 14 15 15 15 14 15 15 15 15 15 16 16 16 15 16 15 16 15 15 14 12 11 11 8 8 9 11 14 26 27 21 20 18 13 14 14 12 12 11 12 11 12 13 11 11 11 14 15 14 12 12 14 15 11 10 8 10 10 12 10 12 10 15 17 17 15 12 14 15 12 11 14 14 19 15 15 14 14 13 14 15 13 13 12 10 9 8
14 14 15 14 14 15 15 14 15 16 16 16 17 15 18 20 18 16 16 15 14 13 9 11 10 11 10 12 9 8 17 20 21 19 16 14 14 14 11 13 11 10 11 10 9 8 9 10 14 12 11 10 15 11 10 8 10 11 12 10 12 12 12 12 20 18 19 13 17 18 11 13 12 16 19 15 14 15 13 14 13 15 17 13 10 11 11 9
14 14 14 14 14 15 15 15 15 16 16 16 16 18 20 20 19 15 13 12 9 9 8 6 8 11 7 5 9 16 15 16 17 17 18 16 15 13 13 12 12 12 12 11 11 10 11 13 10 10 10 11 11 11 11 10 10 11 11 11 11 14 12 13 16 18 18 18 14 18 13 15 11 19 18 17 15 16 14 14 13 13 12 15 13 12 11 10
14 14 14 15 15 15 16 16 15 16 17 17 14 19 20 20 18 15 11 8 7 8 8 11 10 9 15 19 16 15 14 13 15 16 18 16 18 16 14 13 10 12 12 13 13 13 9 9 8 10 10 13 13 13 13 12 11 10 10 11 12 13 15 15 12 18 18 19 15 15 16 19 15 16 17 18 16 15 15 12 13 13 13 14 15 11 13 9
13 14 14 15 15 16 16 16 16 17 16 16 18 23 22 21 13 8 8 6 6 5 5 9 9 9 4 6 25 19 12 13 13 17 17 18 17 16 14 13 11 14 13 13 11 14 11 9 9 10 14 14 15 15 14 13 14 14 13 12 13 12 13 15 12 18 19 18 16 17 17 18 21 17 17 16 15 15 13 10 12 11 12 14 11 13 10 10
12 13 14 15 15 15 16 15 16 16 16 14 12 10 9 5 5 5 9 10 13 13 10 11 19 16 19 22 10 19 17 7 16 16 17 17 16 18 17 14 13 14 14 13 13 16 10 13 14 15 14 16 18 18 17 19 16 14 14 14 14 15 12 14 12 18 19 15 16 16 18 18 19 14 17 16 14 11 11 12 11 8 10 14 16 12 14 12
13 14 15 16 16 15 15 15 15 15 15 12 13 10 7 5 9 2 2 13 16 17 20 19 16 18 17 16 9 11 13 8 12 16 16 15 17 17 16 15 15 14 15 16 13 12 13 14 16 17 17 18 18 17 16 19 21 18 12 13 12 15 13 13 14 21 19 12 15 16 16 17 15 13 16 14 14 14 11 12 10 11 11 13 18 17 14 11
12 14 15 16 15 15 15 15 14 16 15 11 11 10 10 13 9 4 6 9 15 22 23 22 18 19 18 19 18 15 6 8 14 10 13 15 17 17 16 16 17 15 14 15 13 12 15 17 16 17 16 17 16 18 18 18 19 19 14 12 12 12 14 11 16 18 18 14 11 17 15 14 16 15 17 14 13 10 10 13 10 9 12 15 17 16 13 13
13 13 14 15 16 16 16 17 15 13 11 10 10 13 13 12 4 8 9 12 16 18 18 21 20 18 20 17 15 9 10 12 13 16 15 15 17 18 16 16 16 15 16 18 16 14 14 16 17 17 16 17 18 17 18 18 17 14 14 12 10 12 12 9 15 17 17 11 10 16 14 11 15 11 14 12 13 11 15 12 11 7 7 17 19 18 16 15
12 13 14 14 16 16 17 17 18 16 13 16 13 14 13 13 9 8 9 8 11 14 17 19 20 18 20 17 10 14 14 11 14 17 17 17 16 17 15 20 18 17 16 20 21 16 14 12 16 17 18 18 18 17 16 14 14 15 16 13 10 14 14 14 8 9 11 13 11 13 12 10 13 10 10 11 12 15 15 12 12 11 9 10 18 15 16 17
12 12 14 13 14 16 16 19 13 13 14 13 15 14 11 6 8 7 8 9 10 16 19 17 13 16 18 14 14 14 13 12 15 11 16 18 18 16 16 13 13 16 18 20 21 18 17 15 16 18 18 19 18 16 18 15 14 14 17 16 14 14 11 19 12 15 10 11 13 13 10 11 12 13 13 12 12 12 11 9 10 11 10 15 21 18 16 14
11 12 12 13 14 15 17 10 5 11 6 9 6 3 5 6 0 9 5 5 9 9 12 15 11 14 13 17 14 14 14 15 14 13 12 16 16 15 12 13 12 17 20 20 17 12 13 15 16 19 19 19 20 17 18 18 14 13 13 17 19 15 12 12 19 13 10 11 14 16 12 7 11 15 16 14 9 9 8 8 7 7 7 11 12 13 12 13
10 12 12 11 12 14 8 5 13 15 9 1 2 3 6 6 6 5 4 6 9 6 12 8 15 6 11 15 16 14 15 13 11 15 14 18 18 14 15 14 14 11 13 11 9 13 14 18 17 17 19 18 17 17 17 19 14 13 9 16 19 18 16 14 19 12 7 7 9 17 14 9 12 14 18 18 16 16 13 13 13 13 12 14 12 11 10 9
10 11 12 12 11 9 8 10 13 11 11 6 5 6 4 1 5 4 5 3 4 9 10 13 5 10 12 15 18 16 11 9 15 17 17 14 18 17 17 18 15 17 15 14 15 10 17 18 21 19 18 16 16 16 16 17 15 11 12 16 18 17 15 15 14 11 10 10 11 13 19 12 10 11 15 18 18 17 18 16 15 14 13 16 14 12 10 6
10 10 11 11 12 15 11 10 11 14 11 12 13 3 6 4 4 4 3 6 4 4 6 10 7 9 6 15 19 16 16 11 13 13 16 15 19 12 15 18 16 16 18 17 14 12 13 18 17 19 16 14 15 16 17 17 16 16 13 13 12 16 15 14 10 14 11 9 11 14 16 11 10 9 11 12 15 16 17 16 13 10 9 16 15 13 12 6
10 10 9 10 10 10 9 11 13 16 11 10 11 10 6 4 5 5 4 5 7 7 10 5 9 11 11 16 15 18 19 12 11 15 17 12 18 19 13 14 15 14 15 18 18 15 14 16 16 14 16 13 15 16 19 19 17 11 17 13 13 15 11 10 12 11 9 9 12 15 17 13 9 11 13 13 14 12 13 10 6 4 12 11 14 13 9 9
10 8 7 7 9 7 9 10 10 10 15 5 4 6 5 3 4 5 7 2 6 6 5 8 10 12 14 17 14 16 17 15 15 17 17 14 15 18 12 13 15 12 13 15 17 19 18 16 15 14 16 14 18 16 16 16 15 15 12 12 10 11 8 8 9 8 6 9 14 16 16 21 12 8 10 12 13 15 16 16 15 6 13 11 10 13 11 12
10 10 9 8 10 9 10 9 9 16 4 8 4 6 4 5 5 7 5 7 8 5 10 7 10 12 15 15 12 15 14 16 15 18 17 14 12 15 16 13 13 12 15 16 15 16 19 16 13 16 13 19 14 12 14 16 17 15 14 13 11 9 6 8 8 9 11 9 13 18 18 15 16 2 13 14 17 15 20 18 15 14 14 13 12 12 11 10
9 8 11 10 12 9 13 13 13 11 6 4 5 3 5 5 9 10 11 8 2 2 2 6 8 14 14 15 14 15 17 15 17 17 19 17 15 16 18 16 15 12 11 16 14 15 14 16 17 18 18 17 16 15 14 15 15 16 17 14 13 12 11 8 11 6 8 11 12 13 17 13 7 7 11 10 18 20 18 19 18 15 14 13 11 10 11 10
10 11 10 11 11 12 10 11 10 10 7 7 7 5 6 8 8 8 11 8 2 5 3 7 7 13 15 11 12 14 14 17 15 13 17 14 16 14 17 21 19 18 12 13 14 14 13 15 17 19 13 14 17 17 14 12 15 16 16 16 14 14 9 8 10 9 10 8 11 14 12 7 9 7 9 16 17 19 16 15 16 17 15 14 13 12 11 10
9 12 13 13 12 13 14 12 10 9 7 6 7 8 9 10 8 7 5 8 3 6 7 6 7 7 12 13 12 15 13 12 18 14 16 14 15 14 16 17 22 18 13 10 10 5 19 12 13 18 11 17 19 19 17 16 14 14 14 14 13 11 8 10 6 8 9 9 9 11 1 9 10 9 10 14 15 16 18 20 19 16 14 13 12 11 8 8
9 10 11 11 11 13 12 11 11 10 8 7 7 9 13 9 6 6 4 7 6 9 2 6 5 7 7 10 11 13 18 12 16 13 14 15 15 16 18 14 18 23 13 10 7 10 14 13 14 16 20 19 21 18 19 17 12 13 15 16 14 11 13 4 5 9 2 3 8 4 7 9 9 7 5 13 17 17 16 18 17 15 14 13 11 9 8 9
10 10 10 11 13 13 14 12 10 10 9 8 9 11 10 10 13 11 8 8 3 5 6 6 7 8 7 8 9 14 16 16 14 13 10 14 13 18 18 18 18 20 21 12 8 8 7 10 16 18 23 19 19 20 20 19 13 10 14 15 13 14 14 7 7 5 6 6 5 11 12 11 11 5 10 5 13 14 14 14 15 14 13 13 10 7 8 8
8 9 12 13 14 10 12 15 12 10 9 9 11 13 9 12 10 11 9 14 9 9 5 4 2 8 7 6 10 13 15 14 12 14 11 15 9 17 17 15 21 19 21 18 7 9 11 9 13 17 17 17 17 19 19 18 17 13 14 11 13 8 13 11 3 8 9 7 5 13 13 9 11 9 12 14 16 15 16 16 15 15 14 13 11 9 8 9
9 9 9 10 10 10 10 15 11 9 9 10 9 9 11 14 13 12 13 13 8 10 5 3 5 6 5 6 8 13 13 13 12 14 11 12 12 16 19 14 18 23 22 20 13 8 10 7 7 15 18 17 15 15 13 13 17 18 14 15 14 9 11 7 5 6 8 7 6 12 15 5 11 12 20 20 18 18 17 16 16 15 15 12 10 9 8 8
7 5 7 4 8 9 8 11 10 9 10 12 10 11 7 11 13 15 13 11 8 5 6 5 5 5 4 0 7 9 11 16 14 12 14 10 12 15 19 18 14 22 22 22 13 9 5 5 3 7 20 16 13 11 14 14 13 15 13 12 12 8 8 11 9 12 9 7 9 6 9 6 4 13 20 22 21 20 19 17 15 14 14 13 11 9 8 9
6 5 3 2 2 7 7 8 9 11 11 9 13 13 14 12 8 9 10 10 9 6 9 3 6 4 3 5 7 12 8 12 14 11 11 11 12 5 15 15 13 20 21 20 15 10 3 3 4 7 13 12 12 15 18 19 18 15 14 13 14 15 13 14 11 12 11 9 6 8 5 7 6 6 10 19 18 19 18 18 15 15 15 12 10 10 10 9
6 5 3 0 4 10 10 10 9 10 9 12 11 11 12 11 12 11 9 9 11 9 6 8 7 6 3 6 9 7 5 9 11 13 10 10 12 10 7 16 12 16 16 12 15 13 5 2 4 5 9 14 17 18 19 19 19 18 15 14 16 13 12 10 9 10 11 10 11 9 4 1 8 6 10 10 8 15 16 18 16 15 15 14 12 10 9 8
7 7 3 5 9 12 10 9 9 9 12 11 14 17 16 13 10 9 10 8 9 9 8 7 6 5 2 3 12 8 3 10 10 10 12 10 6 12 12 16 14 15 19 12 17 9 9 2 5 8 10 12 15 16 17 19 19 19 17 15 14 14 15 12 10 6 7 6 8 6 2 4 7 7 12 17 15 15 14 16 17 14 13 13 13 12 11 9
6 6 2 6 8 10 9 10 10 11 10 13 16 15 14 13 10 10 9 10 8 6 8 5 5 4 7 2 3 1 9 5 6 11 10 12 7 10 16 18 16 12 16 9 8 11 6 7 9 7 8 10 13 13 15 17 16 13 13 15 17 16 18 14 10 3 3 7 10 8 4 2 2 5 11 17 17 18 17 15 15 14 12 12 12 11 10 10
6 4 1 1 3 6 10 10 10 6 10 14 13 15 14 11 7 9 10 11 8 9 5 6 6 7 6 5 4 5 10 6 2 10 4 8 4 9 16 15 12 12 13 13 10 13 5 8 8 9 11 10 10 11 13 15 17 12 15 18 20 18 17 12 10 7 5 6 15 3 4 8 9 12 15 16 17 16 14 14 14 14 14 12 11 11 10 9
3 5 1 2 5 7 10 12 11 8 9 9 9 11 12 10 8 12 14 13 9 8 8 8 5 1 7 8 7 5 9 7 8 2 5 5 2 4 5 9 15 3 13 8 16 13 6 7 10 8 9 9 11 11 11 13 12 15 17 20 18 17 17 14 6 6 7 5 7 8 17 15 12 15 15 15 16 17 14 14 15 14 14 13 12 11 11 10
3 4 1 3 6 8 10 9 10 8 9 9 6 7 12 11 8 12 12 7 8 7 6 7 6 6 6 7 7 7 8 9 10 10 4 3 2 4 8 12 10 4 8 5 13 6 4 9 9 7 8 7 1 7 9 9 15 20 19 18 19 18 15 10 4 4 4 6 2 2 19 19 15 15 15 15 16 15 13 14 15 14 13 12 12 11 12 11
4 1 3 5 5 6 9 9 12 10 13 10 9 11 10 9 10 8 7 1 7 1 4 3 8 10 10 8 6 5 6 10 10 5 11 4 2 3 4 13 11 7 6 9 12 5 1 3 9 6 5 7 2 4 10 7 11 15 14 11 14 18 14 8 6 8 4 3 6 10 15 18 17 14 14 15 15 14 14 15 14 14 13 13 13 13 13 12
5 4 4 6 4 5 6 6 12 14 12 11 7 10 11 10 10 10 7 1 1 3 5 5 7 9 8 9 9 8 7 7 7 10 10 4 9 8 6 10 13 12 10 8 12 5 5 3 2 8 7 7 7 5 2 5 6 8 13 14 14 9 7 11 6 8 14 11 14 13 5 11 11 14 12 11 11 14 13 13 13 14 14 13 13 13 13 12
2 2 3 4 6 8 11 7 10 13 12 11 8 9 10 9 10 9 2 1 1 4 1 8 11 11 12 10 10 10 9 8 5 4 9 13 11 11 8 7 3 9 11 9 7 9 9 1 4 3 4 6 6 2 5 3 2 8 9 10 9 5 9 3 14 14 16 15 14 18 17 10 4 11 11 9 10 10 12 15 15 14 13 13 13 13 12 11
3 2 3 6 8 5 6 6 7 9 8 9 9 8 9 10 6 6 3 6 6 6 6 8 9 10 11 13 11 9 9 7 6 6 9 11 7 0 4 2 7 2 10 6 4 1 7 3 4 3 0 5 9 7 3 6 5 3 8 13 10 2 7 7 6 2 11 12 15 14 15 9 7 10 12 12 12 12 14 15 14 12 12 13 13 12 12 11
4 6 6 4 4 5 7 7 8 8 9 8 8 9 5 4 6 2 3 4 13 17 9 5 7 5 5 2 6 5 4 7 9 5 13 6 6 5 4 4 8 8 6 8 6 4 5 5 4 3 2 4 7 4 8 4 5 3 3 8 6 12 12 11 9 4 12 17 12 4 7 9 11 12 14 12 13 11 12 13 14 13 12 12 13 12 11 10
Wind_Direction
340 338 339 337 335 334 333 333 330 330 325 326 320 321 319 317 318 320 317 312 319 320 316 315 318 318 317 317 321 321 320 310 303 290 268 254 252 106 86 117 149 162 178 233 245 241 211 218 221 222 231 231 219 238 246 220 243 223 233 239 246 244 239 239 249 227 70 97 57 252 161 215 181 172 217 231 201 109 92 87 86 83 80 92 101 115 128 135
333 334 331 333 330 330 329 326 324 323 324 321 320 318 317 316 314 314 316 315 318 316 318 316 316 318 317 320 319 322 320 300 290 278 262 272 144 148 135 135 152 170 193 226 232 229 230 212 221 213 229 228 216 236 217 221 205 232 226 234 243 230 249 262 11 328 24 179 88 44 310 217 215 161 173 206 213 178 127 111 108 102 103 99 107 123 130 141
332 330 330 327 329 326 323 325 322 323 321 320 320 320 319 316 318 315 313 312 318 319 316 314 315 316 316 318 319 321 311 303 287 269 263 227 187 154 154 156 166 170 193 221 222 237 231 225 215 219 218 244 212 232 202 218 186 222 248 229 235 254 249 244 108 10 31 17 144 199 213 252 74 188 145 218 205 167 176 136 128 123 123 124 130 133 139 141
328 328 325 325 325 323 323 320 322 319 322 321 319 320 318 317 312 316 317 314 309 315 318 316 316 317 314 315 322 318 301 289 274 251 80 91 115 131 151 155 170 177 216 240 244 233 233 243 235 216 225 228 232 239 202 209 199 187 229 241 241 227 252 258 282 42 17 325 26 2 155 251 168 271 167 207 201 206 194 152 148 142 140 136 141 143 142 147
324 324 324 323 323 322 320 320 318 320 319 319 317 315 316 315 316 314 315 317 315 313 313 313 315 315 315 315 317 308 301 283 327 92 114 109 127 144 161 180 181 203 220 234 246 254 241 233 239 227 227 233 242 225 227 213 216 241 221 238 253 271 294 327 290 183 219 39 291 29 210 232 180 241 247 210 220 197 209 164 153 135 138 142 144 143 147 150
322 321 322 321 321 320 321 317 318 318 317 317 316 313 310 311 315 321 318 311 313 314 315 315 313 315 315 318 307 286 281 241 96 125 143 132 142 166 178 184 194 218 215 227 236 233 235 229 233 231 214 238 234 236 200 237 187 241 235 241 247 255 286 293 195 273 160 143 245 264 246 22 128 205 256 241 228 50 19 142 112 121 132 134 139 144 153 154
319 321 320 319 318 320 317 317 316 316 317 313 316 312 310 307 306 316 315 314 309 312 313 314 315 314 319 310 288 260 243 270 303 134 153 159 151 167 177 185 182 214 217 219 224 229 222 228 223 227 232 224 239 247 247 206 225 239 248 235 244 258 264 267 354 152 158 246 228 244 50 274 201 234 211 229 151 92 82 95 116 122 124 131 134 156 157 159
319 322 319 319 318 316 317 315 315 315 314 315 315 317 314 316 316 314 315 312 312 311 313 311 312 313 323 320 312 226 226 245 262 154 172 169 162 164 172 192 189 197 212 215 212 221 222 222 218 224 236 229 215 235 245 249 220 226 239 257 266 244 224 256 227 225 184 222 254 259 242 224 228 247 168 234 130 101 97 99 99 113 119 117 143 167 160 154
320 317 320 317 316 315 315 316 315 315 316 315 314 315 317 316 312 316 311 310 308 310 312 312 310 312 311 287 281 290 240 231 251 146 169 183 172 170 173 194 191 199 212 215 219 222 224 216 225 223 226 229 242 240 226 243 232 226 242 237 254 265 263 231 227 219 197 221 221 226 232 224 227 248 257 215 142 131 112 113 115 122 132 141 146 175 161 147
319 319 317 317 313 315 317 317 317 318 317 317 317 317 316 314 315 309 310 310 310 306 304 307 304 313 301 277 268 254 259 250 242 171 173 190 162 169 194 226 181 205 214 212 218 224 219 221 225 217 246 251 237 236 251 230 253 220 222 239 243 243 237 244 247 211 219 229 206 226 212 225 220 165 218 220 151 167 119 125 131 138 138 135 150 140 183 152
317 317 318 316 314 314 315 316 317 316 320 318 319 319 313 311 305 307 306 302 302 304 303 300 306 302 288 273 253 238 288 264 155 194 166 203 217 222 212 219 198 208 218 217 221 219 225 233 221 234 229 242 249 253 242 249 241 254 247 219 227 250 249 241 224 236 215 217 228 216 225 221 190 191 226 185 141 158 152 141 145 144 139 140 130 155 162 157
318 317 317 315 316 313 313 313 312 314 312 316 315 313 313 307 307 300 298 298 297 292 291 298 308 293 277 271 246 235 207 214 94 203 200 194 225 222 236 226 213 209 211 227 217 220 227 229 233 228 231 192 249 263 256 257 257 245 235 269 252 226 244 234 226 215 216 217 219 207 233 217 190 203 233 173 146 173 165 153 147 150 148 133 145 143 130 186
318 317 316 318 316 317 313 311 309 311 312 310 312 310 307 304 299 300 297 293 288 288 295 299 295 274 282 271 246 250 269 284 297 297 252 267 261 227 226 233 242 246 241 232 229 218 223 230 231 235 238 247 228 221 27 257 242 251 242 223 237 240 228 227 232 211 212 221 200 200 227 214 200 197 223 200 158 175 183 166 157 155 144 141 147 157 178 171
319 317 316 316 318 317 316 316 313 315 314 312 309 307 306 303 300 291 288 286 287 285 282 287 277 276 269 254 281 257 262 275 279 263 263 270 253 244 232 220 231 236 239 251 247 237 219 222 230 238 248 239 247 238 253 258 235 234 234 230 246 239 232 209 217 200 221 205 184 200 231 213 194 183 218 213 162 181 197 177 179 165 156 150 151 170 160 153
317 318 317 315 318 317 317 315 317 313 311 308 308 306 305 295 286 283 281 276 273 272 279 272 256 262 241 264 245 251 256 268 265 265 257 237 234 237 231 229 223 226 226 229 239 248 236 215 223 231 228 239 262 265 240 231 227 221 225 222 221 241 238 210 197 201 216 187 212 199 227 229 187 186 219 209 162 182 202 177 186 157 147 156 159 139 142 155
319 319 319 319 316 315 314 314 312 315 308 310 308 306 294 285 282 280 276 274 282 292 279 260 236 220 272 279 258 244 218 229 240 239 240 241 234 232 224 221 224 222 227 222 240 236 237 219 218 218 233 229 240 239 253 232 227 212 224 222 224 219 243 233 190 194 204 206 204 208 214 232 206 183 220 175 168 179 203 183 193 163 161 161 149 148 154 161
319 318 318 319 319 315 313 310 311 313 314 312 315 299 290 286 281 275 271 269 261 232 232 250 225 200 248 266 269 249 228 217 226 221 225 231 239 236 224 216 212 210 212 225 218 231 227 224 199 222 229 233 220 225 230 228 223 212 204 235 228 221 217 249 174 189 190 216 198 199 223 226 224 179 205 160 176 180 212 190 194 169 164 159 160 159 141 146
320 319 320 318 317 313 309 310 310 309 312 313 310 297 288 281 273 270 265 243 226 241 224 240 273 274 253 243 261 241 224 226 207 217 215 215 224 225 227 216 199 206 201 213 207 217 194 216 187 213 203 220 222 212 218 216 214 206 199 215 231 232 227 232 198 172 189 207 209 189 221 241 241 191 185 158 182 187 210 198 194 183 162 152 146 161 140 138
316 319 316 319 314 311 308 311 310 310 310 314 291 276 264 256 260 250 246 182 196 183 214 197 195 190 37 186 217 239 229 214 210 201 209 205 198 217 217 230 197 198 201 207 181 213 173 210 199 212 211 206 216 215 215 227 214 217 202 212 227 229 218 234 200 166 188 193 208 187 217 234 241 238 164 158 185 194 195 206 228 165 159 149 144 132 137 128
314 315 317 315 314 309 311 311 311 311 314 305 308 299 291 224 217 224 218 201 217 212 233 191 195 213 272 282 258 215 245 309 196 196 207 196 187 196 213 211 195 207 203 203 178 203 169 202 203 208 212 208 214 220 220 229 242 222 214 211 223 233 226 229 193 168 178 197 207 197 222 232 246 204 143 161 188 200 203 198 247 151 165 133 117 112 100 109
311 316 318 317 312 312 312 313 310 309 310 302 299 294 279 303 314 309 169 222 226 239 250 261 204 224 251 268 300 164 214 198 259 183 209 175 189 185 199 201 198 201 207 201 201 181 207 206 214 211 211 216 210 220 225 233 244 251 229 218 218 227 236 211 212 164 170 204 194 214 215 231 238 155 165 177 182 199 197 203 218 182 172 142 119 125 117 129
308 314 317 317 313 310 311 307 306 305 301 287 275 270 273 277 333 340 258 270 237 227 237 249 253 244 248 259 270 289 291 238 203 198 195 179 183 194 179 202 196 203 196 199 204 184 210 215 211 213 209 218 220 212 224 231 240 247 253 218 219 224 245 209 228 168 163 196 202 202 217 227 226 192 156 184 182 177 196 212 194 197 176 121 128 126 127 131
306 313 315 316 313 309 307 305 304 300 292 267 255 251 253 255 349 307 301 283 276 267 244 235 242 241 248 252 255 234 247 230 207 201 197 193 180 205 179 197 199 203 194 199 205 194 208 216 212 209 210 214 221 217 215 226 239 242 245 253 217 222 215 217 225 180 165 186 200 187 209 231 227 209 152 183 164 179 204 203 173 185 201 132 140 142 138 141
304 312 315 317 315 312 307 312 302 285 251 243 249 253 268 292 336 310 294 271 291 268 235 224 227 230 234 237 218 234 222 220 236 191 203 190 202 190 208 193 202 202 202 199 209 210 211 207 205 209 212 210 219 217 213 218 228 231 242 238 237 224 206 240 161 148 154 181 242 182 210 214 235 146 174 155 180 199 201 184 185 195 211 155 127 136 141 143
300 309 313 317 314 313 313 314 294 250 242 231 234 241 259 266 286 317 318 291 250 250 240 244 218 222 231 228 226 216 216 240 235 225 188 192 195 182 215 190 210 205 209 199 209 221 215 207 193 208 211 208 214 217 213 213 224 226 230 238 239 237 207 220 151 164 162 190 202 226 193 214 216 184 174 161 200 198 170 178 186 180 190 117 135 141 148 142
298 304 312 316 315 317 313 291 274 336 294 258 291 5 198 241 293 33 314 282 274 263 170 213 178 219 206 210 210 215 214 229 221 240 196 187 206 204 193 210 201 205 207 205 206 220 226 197 203 199 209 208 209 221 211 211 224 225 210 231 245 255 231 213 145 169 185 203 183 224 232 189 214 216 170 173 168 166 157 183 181 202 190 132 121 132 135 139
290 300 308 315 316 318 302 275 344 313 277 318 266 116 325 8 7 341 280 225 258 197 182 142 171 145 190 191 194 191 208 210 210 232 235 170 209 197 213 209 184 232 202 212 199 212 220 207 197 201 204 211 208 215 211 207 218 224 202 216 237 252 246 212 151 181 193 199 215 216 218 244 197 225 171 168 176 182 195 192 198 194 195 113 92 73 88 120
286 297 302 309 307 303 282 301 300 289 282 0 246 324 229 273 341 296 258 279 251 161 156 149 220 137 208 165 192 195 222 149 195 211 231 175 207 191 226 206 204 203 210 201 216 195 203 217 202 193 205 209 215 209 210 203 214 225 211 214 225 237 246 255 204 173 199 184 218 217 212 232 237 198 199 171 195 194 196 202 194 190 185 120 122 132 121 95
283 291 298 305 307 289 275 264 276 272 291 304 313 141 328 337 292 300 251 269 143 162 108 149 109 161 209 172 188 200 213 201 199 175 209 207 197 218 208 225 214 201 217 210 222 204 197 221 223 211 197 213 214 204 214 206 214 218 231 210 219 229 241 255 251 218 185 206 213 218 204 227 227 208 203 195 217 200 200 190 181 175 172 128 121 115 110 94
277 288 295 303 302 271 250 235 246 260 270 275 302 350 345 324 270 230 210 255 195 161 194 94 194 172 195 174 190 193 212 211 219 161 194 212 179 223 227 226 230 211 213 219 223 226 207 190 225 225 208 206 216 212 210 216 217 205 231 229 208 225 227 252 268 226 187 214 227 222 196 212 231 224 199 203 208 189 184 144 90 143 103 93 105 115 121 140
276 279 276 291 289 298 302 278 263 243 230 242 306 291 270 274 246 240 224 261 182 77 174 151 185 171 189 184 187 191 214 219 212 168 180 202 186 204 219 211 235 234 212 218 221 217 226 182 202 226 220 200 209 208 208 218 199 210 220 226 189 219 212 234 255 227 207 213 211 229 217 191 229 228 231 198 171 197 147 119 117 213 129 131 126 136 147 138
268 268 264 262 287 294 273 262 326 326 11 351 328 246 233 235 205 231 212 143 242 141 221 175 189 177 191 187 202 185 203 214 227 175 183 185 193 193 202 214 193 210 211 204 209 214 223 209 197 223 223 226 201 222 197 213 201 202 217 219 200 188 187 219 223 221 219 221 199 213 225 190 203 349 332 169 184 138 114 127 136 139 121 114 115 112 109 110
270 264 266 262 275 259 259 267 282 302 355 0 305 247 226 238 225 220 256 289 51 253 211 304 196 174 188 190 201 186 196 211 218 195 182 184 209 195 203 222 197 218 208 196 209 204 211 217 199 205 212 203 195 207 198 201 200 198 211 211 209 195 186 211 210 230 231 225 232 209 229 238 112 32 21 72 89 107 117 125 132 125 127 124 115 110 100 94
265 266 266 265 261 255 251 259 278 277 263 244 245 229 249 234 238 260 250 234 220 232 231 246 214 180 184 202 197 184 186 215 209 201 178 185 205 194 200 214 215 203 233 186 217 193 197 201 217 205 201 175 216 215 204 203 194 201 212 216 223 212 193 195 205 206 212 219 215 237 224 173 125 116 82 96 113 112 121 111 107 100 104 105 100 98 98 102
273 271 264 271 261 255 242 241 243 250 256 242 225 230 222 230 259 261 254 247 250 222 197 180 233 263 198 204 203 186 197 193 222 195 184 197 195 209 194 204 215 210 208 218 197 205 210 216 205 207 206 185 210 228 234 199 197 201 210 223 227 210 192 212 197 220 202 213 206 228 239 18 106 105 93 113 111 112 103 105 109 112 118 116 109 103 105 111
274 266 258 255 246 233 228 214 222 221 230 219 232 222 225 225 223 222 245 311 288 304 124 174 231 245 230 212 190 204 180 228 195 212 180 203 195 209 196 201 213 210 197 212 159 216 205 211 200 186 212 203 208 212 225 219 208 179 207 214 217 197 216 189 176 240 290 246 218 196 87 104 105 58 29 95 103 103 107 112 119 122 125 120 109 115 122 117
264 278 266 254 242 227 203 203 186 204 208 225 229 233 233 248 254 280 289 270 10 344 281 239 192 213 212 216 211 196 176 219 193 208 197 201 207 206 201 201 210 210 222 194 191 245 210 212 204 201 202 211 197 214 226 223 220 182 213 212 194 202 228 210 209 174 231 236 219 206 137 150 153 156 161 201 122 124 118 120 124 125 122 114 116 112 120 117
285 281 278 273 266 260 177 174 177 190 207 223 233 247 263 257 241 257 273 291 285 211 238 263 335 264 194 229 231 201 181 201 187 193 212 182 231 188 203 200 196 217 215 208 200 187 229 226 210 204 206 213 199 205 226 232 210 218 203 205 205 173 211 212 206 194 202 217 225 215 141 169 182 146 163 164 156 147 143 138 136 136 128 125 124 119 115 123
283 278 275 266 243 233 201 172 173 188 207 224 230 244 246 254 272 276 281 281 280 304 275 222 302 157 252 213 290 282 202 201 195 196 213 172 226 179 211 197 187 209 211 208 205 180 206 250 221 196 203 202 197 200 216 213 197 228 213 203 206 216 214 215 198 210 203 212 219 223 158 191 181 160 169 167 164 156 150 146 143 137 136 135 131 132 131 127
270 256 252 256 243 180 189 181 192 203 220 224 226 239 259 247 235 237 243 255 261 253 231 286 187 258 198 102 238 277 228 211 200 200 211 157 229 169 211 191 198 193 212 208 207 176 220 234 279 215 202 199 198 190 217 203 187 199 209 200 190 230 208 235 196 218 199 215 208 235 214 150 357 169 170 170 165 161 153 148 136 136 135 135 133 135 131 127
248 257 283 130 165 146 166 186 197 211 221 238 253 258 246 252 265 266 259 245 259 243 283 279 293 295 72 0 314 262 261 230 213 210 207 179 205 173 215 202 200 187 206 203 206 158 239 208 236 253 207 201 196 187 213 202 197 199 208 206 203 205 208 205 217 204 214 213 205 204 222 72 351 5 180 163 153 148 144 134 133 137 132 132 126 120 120 115
251 240 210 176 193 157 177 191 208 213 230 232 230 230 247 262 273 272 277 271 254 269 227 264 250 288 183 138 266 272 293 295 283 225 202 217 191 242 189 224 208 190 192 204 198 152 209 174 199 242 248 202 202 188 216 220 203 198 202 214 203 205 220 208 225 197 213 221 228 210 217 82 10 5 98 99 125 131 129 132 129 129 130 128 126 120 111 110
221 244 32 301 260 184 197 213 209 213 226 237 242 245 252 254 257 256 258 252 263 228 248 240 268 296 292 206 199 243 283 270 275 252 198 193 240 248 263 231 231 222 200 193 191 155 124 250 207 217 234 241 224 212 200 228 224 208 203 220 214 209 208 227 226 203 214 224 221 219 179 89 36 79 94 112 122 111 121 129 123 125 124 124 126 126 126 118
266 266 242 241 268 223 199 205 202 215 226 234 240 251 246 254 242 240 249 258 254 247 243 258 285 278 304 234 248 137 283 298 283 272 184 181 187 222 244 253 255 244 207 145 197 135 155 195 222 188 208 212 218 210 199 211 233 225 203 205 219 215 204 220 231 165 243 222 230 228 142 155 76 92 99 112 118 125 128 125 124 124 127 131 132 132 130 130
284 284 234 287 270 247 215 218 220 211 227 229 231 242 248 239 252 264 261 260 247 256 280 261 271 309 278 294 275 239 224 256 296 324 217 181 168 214 230 229 241 259 214 170 165 145 181 174 209 191 189 194 215 214 194 193 209 214 221 210 211 217 211 204 213 172 221 259 243 219 83 111 126 124 115 124 123 124 128 128 130 133 134 136 134 131 130 125
239 263 89 313 218 219 245 258 279 280 291 289 279 249 236 247 244 248 235 242 275 293 284 275 264 243 269 271 270 244 240 219 242 43 241 201 244 262 259 236 258 234 335 151 142 153 196 172 207 218 192 211 220 228 215 200 197 217 210 216 202 217 226 231 225 208 205 210 239 108 146 134 149 143 139 141 138 136 134 135 134 134 134 131 130 127 127 125
332 278 218 188 184 226 233 236 249 259 267 263 261 248 239 243 245 258 212 243 210 270 288 276 282 289 270 270 261 266 252 243 221 118 258 260 265 324 310 249 237 87 294 171 177 150 201 201 182 222 242 234 3 299 286 252 214 209 212 206 205 205 221 226 220 216 217 249 104 128 141 145 157 155 151 146 136 134 133 136 133 134 135 131 130 128 125 122
246 275 13 340 289 202 211 232 228 239 243 242 260 275 252 236 239 246 127 226 13 38 279 263 258 248 263 254 260 250 254 239 243 172 165 225 204 299 300 277 232 142 251 210 163 130 172 227 155 196 217 232 7 325 315 307 316 219 205 215 217 210 209 205 200 242 219 229 142 176 153 145 156 150 145 136 135 134 132 133 133 134 131 130 130 128 127 124
260 303 291 305 286 284 244 240 228 231 234 233 257 262 264 250 240 237 240 133 293 255 241 264 267 269 257 242 237 249 235 237 231 181 156 196 185 202 242 226 203 132 210 217 183 151 187 190 127 195 206 222 239 228 290 312 311 285 197 214 239 256 236 190 189 73 76 90 132 127 106 116 137 139 123 131 127 129 131 128 128 130 132 136 130 127 127 125
303 354 306 300 272 278 271 265 270 234 228 224 239 241 256 255 256 272 69 314 312 287 331 269 274 266 257 253 239 236 238 252 313 308 152 172 202 190 172 226 131 178 199 209 193 154 208 159 236 107 226 212 240 152 282 247 353 15 359 242 227 55 32 58 96 92 82 92 98 118 123 110 85 105 105 107 114 111 119 128 128 132 136 133 129 128 126 121
301 266 248 288 310 304 290 265 284 251 228 220 233 234 246 245 247 47 13 18 300 264 257 273 283 275 263 242 232 244 246 253 255 250 295 208 191 112 150 171 110 259 194 187 212 128 211 179 173 44 50 212 201 194 186 35 346 80 6 25 13 82 95 26 88 89 122 118 121 119 123 127 116 96 99 105 114 128 130 130 129 131 134 129 127 124 124 122
303 253 227 251 286 297 312 310 296 273 229 222 227 229 216 44 51 33 31 273 249 256 280 275 266 274 248 210 230 228 268 245 242 221 195 265 97 223 201 196 167 197 222 197 142 97 236 164 169 117 239 216 186 123 87 37 33 129 56 17 14 78 92 87 80 123 131 131 120 135 137 126 128 126 119 127 132 127 129 132 130 132 130 130 129 127 124 124